When you browse on this site, cookies collect data to enhance your experience and personalize the content and advertising you see.
Visit our Privacy Policy to learn more. By continuing to use the site, you agree to this use of cookies and data.
  • en France
  • Liste des pays
  • À 7 jours
  • Température de l'eau
  • Carte satellitaire
  • Carte météo
  • Widgets météo
  • user-avatar
    Se connecter

    Météo par heure à Trinidad

    Ce jour, 25 Mai, Samedi

    Heure Température Précipitation Vent Pression Humidité
    00:00 +18°C° 0 mm 1 m/s 748 mmHg 70%
    01:00 +18°C° 0 mm 1 m/s 747 mmHg 70%
    02:00 +18°C° 0 mm 1 m/s 747 mmHg 71%
    03:00 +16°C° 0 mm 1 m/s 747 mmHg 72%
    04:00 +16°C° 0 mm 1 m/s 747 mmHg 72%
    05:00 +16°C° 0 mm 1 m/s 746 mmHg 73%
    06:00 +18°C° 0 mm 1 m/s 747 mmHg 72%
    07:00 +18°C° 0 mm 1 m/s 747 mmHg 71%
    08:00 +19°C° 0 mm 1 m/s 747 mmHg 71%
    09:00 +22°C° 0 mm 1 m/s 747 mmHg 64%
    10:00 +24°C° 0 mm 1 m/s 747 mmHg 58%
    11:00 +27°C° 0 mm 1 m/s 748 mmHg 51%
    12:00 +28°C° 0 mm 1 m/s 747 mmHg 51%
    13:00 +28°C° 0 mm 0 m/s 746 mmHg 50%
    14:00 +29°C° 0 mm 0 m/s 745 mmHg 49%
    15:00 +30°C° 0 mm 1 m/s 744 mmHg 53%
    16:00 +29°C° 0 mm 1 m/s 744 mmHg 58%
    17:00 +28°C° 0 mm 1 m/s 743 mmHg 63%
    18:00 +27°C° 0 mm 1 m/s 743 mmHg 69%
    19:00 +25°C° 0 mm 1 m/s 744 mmHg 74%
    20:00 +24°C° 0 mm 1 m/s 744 mmHg 79%
    21:00 +23°C° 0 mm 1 m/s 744 mmHg 81%
    22:00 +23°C° 0 mm 1 m/s 744 mmHg 83%
    23:00 +23°C° 0 mm 1 m/s 745 mmHg 85%

    Demain, 26 Mai, Dimanche

    Heure Température Précipitation Vent Pression Humidité
    00:00 +22°C° 0 mm 1 m/s 744 mmHg 86%
    01:00 +22°C° 0 mm 1 m/s 744 mmHg 87%
    02:00 +22°C° 0 mm 1 m/s 744 mmHg 88%
    03:00 +22°C° 0 mm 1 m/s 744 mmHg 89%
    04:00 +22°C° 0 mm 1 m/s 744 mmHg 90%
    05:00 +21°C° 0 mm 1 m/s 743 mmHg 92%
    06:00 +22°C° 0 mm 1 m/s 744 mmHg 89%
    07:00 +23°C° 0 mm 1 m/s 744 mmHg 86%
    08:00 +24°C° 0 mm 1 m/s 744 mmHg 83%
    09:00 +26°C° 0 mm 2 m/s 745 mmHg 75%
    10:00 +28°C° 0 mm 2 m/s 745 mmHg 67%
    11:00 +31°C° 0 mm 2 m/s 745 mmHg 59%
    12:00 +31°C° 0 mm 3 m/s 745 mmHg 57%
    13:00 +33°C° 0 mm 3 m/s 744 mmHg 55%
    14:00 +34°C° 0 mm 3 m/s 743 mmHg 53%
    15:00 +33°C° 0 mm 3 m/s 742 mmHg 58%
    16:00 +32°C° 0 mm 2 m/s 742 mmHg 62%
    17:00 +31°C° 0 mm 2 m/s 741 mmHg 67%
    18:00 +29°C° 0 mm 2 m/s 742 mmHg 73%
    19:00 +28°C° 0 mm 1 m/s 742 mmHg 79%
    20:00 +26°C° 0 mm 1 m/s 742 mmHg 85%
    21:00 +26°C° 0 mm 1 m/s 743 mmHg 86%
    22:00 +25°C° 0 mm 1 m/s 743 mmHg 88%
    23:00 +25°C° 0 mm 1 m/s 743 mmHg 89%

    Après-demain, 27 Mai, Lundi

    Heure Température Précipitation Vent Pression Humidité
    00:00 +25°C° 0 mm 1 m/s 743 mmHg 90%
    01:00 +25°C° 0 mm 1 m/s 743 mmHg 91%
    02:00 +24°C° 0 mm 1 m/s 742 mmHg 91%
    03:00 +24°C° 0 mm 1 m/s 742 mmHg 92%
    04:00 +24°C° 0 mm 1 m/s 742 mmHg 93%
    05:00 +24°C° 0 mm 1 m/s 742 mmHg 93%
    06:00 +25°C° 0 mm 1 m/s 743 mmHg 90%
    07:00 +25°C° 0 mm 2 m/s 743 mmHg 87%
    08:00 +26°C° 0 mm 2 m/s 744 mmHg 84%
    09:00 +28°C° 0 mm 2 m/s 744 mmHg 76%
    10:00 +30°C° 0 mm 3 m/s 745 mmHg 69%
    11:00 +33°C° 0 mm 3 m/s 745 mmHg 62%
    12:00 +34°C° 0 mm 3 m/s 744 mmHg 60%
    13:00 +34°C° 0 mm 3 m/s 743 mmHg 58%
    14:00 +35°C° 0 mm 3 m/s 742 mmHg 55%
    15:00 +34°C° 0 mm 3 m/s 742 mmHg 60%
    16:00 +32°C° 0 mm 2 m/s 742 mmHg 64%
    17:00 +31°C° 0 mm 2 m/s 741 mmHg 69%
    18:00 +30°C° 0 mm 2 m/s 742 mmHg 74%
    19:00 +29°C° 0 mm 1 m/s 742 mmHg 79%
    20:00 +27°C° 0 mm 1 m/s 742 mmHg 85%
    21:00 +27°C° 0 mm 1 m/s 743 mmHg 86%
    22:00 +27°C° 0 mm 1 m/s 743 mmHg 87%
    23:00 +26°C° 0 mm 1 m/s 743 mmHg 89%

    28 Mai, Mardi

    Heure Température Précipitation Vent Pression Humidité
    00:00 +26°C° 0 mm 1 m/s 743 mmHg 89%
    01:00 +26°C° 0 mm 1 m/s 743 mmHg 90%
    02:00 +26°C° 0 mm 1 m/s 742 mmHg 90%
    03:00 +25°C° 0 mm 1 m/s 742 mmHg 92%
    04:00 +25°C° 0 mm 1 m/s 742 mmHg 93%
    05:00 +25°C° 0 mm 1 m/s 742 mmHg 94%
    06:00 +26°C° 0 mm 1 m/s 743 mmHg 91%
    07:00 +26°C° 0 mm 1 m/s 744 mmHg 88%
    08:00 +27°C° 0 mm 1 m/s 744 mmHg 86%
    09:00 +29°C° 0 mm 2 m/s 744 mmHg 77%
    10:00 +31°C° 0 mm 2 m/s 744 mmHg 69%
    11:00 +32°C° 0 mm 2 m/s 744 mmHg 61%
    12:00 +34°C° 0 mm 2 m/s 744 mmHg 58%
    13:00 +35°C° 0 mm 3 m/s 743 mmHg 56%
    14:00 +36°C° 0 mm 3 m/s 742 mmHg 53%
    15:00 +35°C° 0 mm 2 m/s 742 mmHg 57%
    16:00 +34°C° 0 mm 2 m/s 741 mmHg 61%
    17:00 +32°C° 0 mm 2 m/s 741 mmHg 65%
    18:00 +31°C° 0 mm 1 m/s 741 mmHg 70%
    19:00 +29°C° 0 mm 1 m/s 742 mmHg 75%
    20:00 +28°C° 0 mm 1 m/s 742 mmHg 80%
    21:00 +28°C° 0 mm 1 m/s 742 mmHg 82%
    22:00 +27°C° 0 mm 1 m/s 743 mmHg 83%
    23:00 +27°C° 0 mm 1 m/s 743 mmHg 85%

    29 Mai, Mercredi

    Heure Température Précipitation Vent Pression Humidité
    00:00 +27°C° 0 mm 1 m/s 743 mmHg 86%
    01:00 +26°C° 0 mm 1 m/s 743 mmHg 87%
    02:00 +26°C° 0 mm 1 m/s 742 mmHg 88%
    03:00 +26°C° 0 mm 1 m/s 742 mmHg 89%
    04:00 +26°C° 0 mm 1 m/s 743 mmHg 89%
    05:00 +26°C° 0 mm 1 m/s 743 mmHg 90%
    06:00 +26°C° 0 mm 1 m/s 743 mmHg 88%
    07:00 +26°C° 0 mm 1 m/s 744 mmHg 86%
    08:00 +27°C° 0 mm 1 m/s 744 mmHg 83%
    09:00 +29°C° 0 mm 2 m/s 745 mmHg 75%
    10:00 +31°C° 0 mm 2 m/s 745 mmHg 66%
    11:00 +34°C° 0 mm 2 m/s 745 mmHg 58%
    12:00 +35°C° 0 mm 3 m/s 744 mmHg 55%
    13:00 +35°C° 0 mm 3 m/s 743 mmHg 52%
    14:00 +36°C° 0 mm 3 m/s 742 mmHg 49%
    15:00 +35°C° 0 mm 3 m/s 742 mmHg 53%
    16:00 +35°C° 0 mm 2 m/s 741 mmHg 57%
    17:00 +34°C° 0 mm 2 m/s 741 mmHg 61%
    18:00 +31°C° 0 mm 2 m/s 741 mmHg 67%
    19:00 +30°C° 0 mm 1 m/s 741 mmHg 72%
    20:00 +28°C° 0 mm 1 m/s 742 mmHg 77%
    21:00 +28°C° 0 mm 1 m/s 742 mmHg 79%
    22:00 +27°C° 0 mm 1 m/s 742 mmHg 81%
    23:00 +27°C° 0 mm 1 m/s 742 mmHg 82%

    30 Mai, Jeudi

    Heure Température Précipitation Vent Pression Humidité
    00:00 +26°C° 0 mm 1 m/s 742 mmHg 83%
    01:00 +26°C° 0 mm 1 m/s 742 mmHg 83%
    02:00 +26°C° 0 mm 1 m/s 741 mmHg 84%
    03:00 +26°C° 0 mm 1 m/s 741 mmHg 85%
    04:00 +25°C° 0 mm 1 m/s 741 mmHg 85%
    05:00 +25°C° 0 mm 1 m/s 742 mmHg 86%
    06:00 +26°C° 0 mm 1 m/s 742 mmHg 84%
    07:00 +26°C° 0 mm 2 m/s 743 mmHg 81%
    08:00 +27°C° 0 mm 2 m/s 743 mmHg 79%
    09:00 +29°C° 0 mm 2 m/s 744 mmHg 71%
    10:00 +31°C° 0 mm 3 m/s 744 mmHg 62%
    11:00 +34°C° 0 mm 3 m/s 744 mmHg 54%
    12:00 +35°C° 0 mm 3 m/s 743 mmHg 52%
    13:00 +36°C° 0 mm 3 m/s 742 mmHg 50%
    14:00 +36°C° 0 mm 4 m/s 741 mmHg 48%
    15:00 +35°C° 0 mm 3 m/s 741 mmHg 52%
    16:00 +35°C° 0 mm 2 m/s 741 mmHg 56%
    17:00 +34°C° 0 mm 2 m/s 740 mmHg 60%
    18:00 +31°C° 0 mm 2 m/s 741 mmHg 65%
    19:00 +30°C° 0 mm 1 m/s 741 mmHg 70%
    20:00 +28°C° 0 mm 1 m/s 741 mmHg 76%
    21:00 +28°C° 0 mm 1 m/s 741 mmHg 77%
    22:00 +27°C° 0 mm 1 m/s 741 mmHg 79%
    23:00 +27°C° 0 mm 1 m/s 742 mmHg 81%
    Voir plus